Regional Weather Roundup
Issued by NWS

Home | Current Version | Previous Version | Graphics & Text | Print | Product List | Glossary On
Versions: 1 2 3 4 5 6 7 8 9 10 11 12 13 14 15 16 17 18 19 20 21 22 23 24 25 26 27 28 29 30 31 32 33 34 35 36 37 38 39 40 41 42 43 44 45 46 47 48 49 50
000
ASUS43 KMKX 312111
RWRWI

WISCONSIN REGIONAL WEATHER ROUNDUP
NATIONAL WEATHER SERVICE MILWAUKEE/SULLIVAN WI
400 PM CDT MON AUG 31 2015

NOTE: "FAIR" INDICATES FEW OR NO CLOUDS BELOW 12,000 FEET WITH NO
SIGNIFICANT WEATHER AND/OR OBSTRUCTIONS TO VISIBILITY.

WIZ001-002-006>008-014>016-023>028-312200-
NORTHWEST WISCONSIN

CITY           SKY/WX    TMP DP  RH WIND       PRES   REMARKS
SUPERIOR ARPT  FAIR      82  68  62 SW16G25   29.82S HX  85
ASHLAND        FAIR      80  68  66 S13G24    29.87F HX  83
HAYWARD        FAIR      78  67  68 S17G25    29.93F HX  80
SIREN          FAIR      81  67  63 S12G24    29.89F HX  83
CUMBERLAND     CLOUDY    77  68  73 S12G17    29.93S
RICE LAKE      CLOUDY    79  69  71 S9        29.95S HX  81
CHETEK         PTSUNNY  N/A N/A N/A MISG      29.94F
LADYSMITH      FAIR      77  68  73 S12G17    29.99F
EAU CLAIRE     FAIR      82  70  66 S10       29.94F HX  86
MENOMONIE      FAIR      83  71  66 S12G18    29.93F HX  87
NEW RICHMOND   FAIR      82  69  63 S15       29.91F HX  86
OSCEOLA        FAIR      83  70  64 S14       29.92F HX  87
$$

WIZ003>005-009-010-017-018-312200-
NORTH CENTRAL WISCONSIN

CITY           SKY/WX    TMP DP  RH WIND       PRES   REMARKS
MANITOWISH WTR FAIR      80  65  61 SW13G20   29.96S HX  82
ARBOR VITAE    FAIR      80  65  60 S12G17    29.97F HX  81
WOODRUFF       FAIR      80  65  60 S12G17    29.97F HX  81
RHINELANDER    FAIR      79  65  62 SW13      30.00S HX  81
EAGLE RIVER    FAIR      79  59  50 SW8       29.97S HX  80
LAND O LAKES   FAIR      83  59  44 SW8       29.97S HX  83
PHILLIPS       FAIR      75  66  74 SW12G18   29.98S
TOMAHAWK       FAIR      78  66  67 SW8       30.00S
MEDFORD        CLOUDY    72  68  86 SW12G17   30.01F
MERRILL        FAIR      77  68  74 SW8       30.00S
$$

WIZ029-030-035-036-043>047-312200-
CENTRAL WISCONSIN

CITY           SKY/WX    TMP DP  RH WIND       PRES   REMARKS
WAUSAU         FAIR      77  66  68 SW8       29.99F
MOSINEE        MOSUNNY  N/A N/A N/A SW9       30.01F
MARSHFIELD     PTSUNNY   79  68  69 S9        30.00F HX  81
STEVENS POINT  PTSUNNY   78  67  68 S12       30.00F HX  80
WAUPACA        FAIR      83  68  61 SW9       29.99F HX  86
WAUTOMA        FAIR      82  69  64 S9        30.00F HX  85
WISC RAPIDS    FAIR      80  67  64 SW12      30.01F HX  82
CAMP DOUGLAS   MOSUNNY   82  75  78 S7        29.99F HX  89
$$

WIZ011>013-019>022-031-037>040-048>050-312200-
NORTHEAST WISCONSIN

CITY           SKY/WX    TMP DP  RH WIND       PRES   REMARKS
ANTIGO         FAIR      75  66  73 SW7       30.01F
SHAWANO        PTSUNNY   79  68  68 SW6       29.99F HX  82
OCONTO         FAIR      78  69  72 SW10      29.97F HX  80
STURGEON BAY   FAIR      77  66  69 S8        30.00F
GREEN BAY      FAIR      78  69  73 SW10      29.99F HX  80
MANITOWOC      FAIR      76  67  73 MISG      30.00F
APPLETON       MOSUNNY   79  66  65 S9        29.99F HX  81
CLINTONVILLE   FAIR      79  66  65 SW6       29.99F HX  81
OSHKOSH        FAIR      79  68  69 S12       30.00F HX  81
$$

WIZ032>034-041-042-053>061-312200-
SOUTHWEST WISCONSIN

CITY           SKY/WX    TMP DP  RH WIND       PRES   REMARKS
LA CROSSE      FAIR      85  70  60 S12       29.96S HX  89
SPARTA         PTSUNNY   83  66  57 S9        29.98F HX  85
VIROQUA          N/A     82  68  63 S12       30.01F HX  85
BOSCOBEL       FAIR      86  68  54 S9        29.99F HX  89
PRAIRIE DU CHI FAIR      84  67  56 S6        29.97F HX  87
PLATTEVILLE    FAIR      82  71  69 S9        30.01F HX  86
$$

WIZ056-057-062-063-064-067-068-312200-
SOUTH CENTRAL WISCONSIN

CITY           SKY/WX    TMP DP  RH WIND       PRES   REMARKS
REEDSBURG      FAIR      82  69  64 S10G16    30.00F HX  85
BARABOO/DELLS  PTSUNNY   83  65  54 S9        30.00F HX  84
LONE ROCK      FAIR      84  68  58 S13       30.00F HX  87
MINERAL POINT  FAIR      82  68  61 S10       30.02F HX  85
MADISON        FAIR      82  67  60 S10       30.00F HX  84
MIDDLETON      FAIR      84  66  53 NW7       30.02F HX  86
WATERTOWN      FAIR      81  68  64 S10       30.01F HX  84
MONROE         PTSUNNY   81  68  65 S9        30.02F HX  83
JANESVILLE     MOSUNNY   84  66  54 S7        30.02F HX  86
$$

WIZ051-052-058>065-066-070>072-312200-
SOUTHEAST WISCONSIN

CITY           SKY/WX    TMP DP  RH WIND       PRES   REMARKS
MILWAUKEE      PTSUNNY   76  66  71 SE13      30.02F
WAUKESHA       MOSUNNY   79  66  65 SW6       30.04F HX  81
MILWAUKEE/TIMM SUNNY     81  64  57 S7        30.03  HX  82
RACINE         FAIR      76  66  71 S9        30.04F
BURLINGTON     FAIR      81  67  61 S3        30.02F HX  83
KENOSHA        FAIR      80  69  69 E10       30.03F HX  83
FOND DU LAC    FAIR      79  68  69 S8        30.01F HX  81
SHEBOYGAN      FAIR      78  68  71 MISG      30.01F HX  80
WEST BEND      FAIR      79  64  61 CALM      30.02F HX  81
JUNEAU         FAIR      79  68  69 SW7       30.03F HX  81
$$

LSZ147-162-312200-
LAKE SUPERIOR

STATION/POSITION TIME  TEMP    WIND        PRES    WAVE
                       AIR SEA DIR/SP/G            HT/PER
                 (UTC) (F)     (DEG/KT/KT) (MB)    (FT/S)
W MID LAKE BUOY  2050   63 58  210/  6/  6 1010.6F   1
DEVILS ISLAND    2100   70     340/  3/  4 1010.5F
PORT WING        2000   81     190/ 12/ 19 1010.5F
SAXON HARBOR     2040   82     210/  9/ 17 1010.8F
$$

LMZ867-665-643>646-312200-
LAKE MICHIGAN

STATION/POSITION TIME  TEMP    WIND        PRES    WAVE
                       AIR SEA DIR/SP/G            HT/PER
                 (UTC) (F)     (DEG/KT/KT) (MB)    (FT/S)
CHAMBERS ISLAND  2000   72     180/  7/ 14 1015.2F
S GREEN BAY BUOY 2100   69 64  210/  8/  8 1016.6
N MID LAKE BUOY  2050   65 65  200/ 16/ 17 1014.9F   3/ 4
NORTHPORT PIER   2000   67     140/  8/ 11 1014.9F
KEWAUNEE LAKESHO 2000   57     180/ 12/ 14 1015.2F
SHEBOYGAN LAKESH 2100   68     180/ 19/ 20 1016.2F
PORT WASHINGTON  2000   67     180/  7/ 10 1017.6
ATWATER BUOY     2100   60 51  170/  6/  8 1017.9F
MILWAUKEE LAKESH 2010   62     130/  6/  8   N/A
S MID LAKE BUOY  2050   70 71  170/  6/  6 1017.0F
KENOSHA   LAKESH 2100   68     170/ 10/ 12 1016.3F
$$

TC  - TEMPERATURE IN CELSIUS
VSB - VISIBILITY IN STATUTE MILES
WCI - WIND CHILL INDEX
HX  - HEAT INDEX



USA.gov is the U.S. government's official web portal to all federal, state and local government web resources and services.